• Em Portugal
  • Lista de países
  • Para 7 dias
  • Temperatura da água
  • Mapas de satélite
  • Mapa do tempo
  • Widgets de tempo
  • user-avatar
    Iniciar Sessão

    Previsão horária em Taungdżi

    Hoje, 11 Dezembro, Segunda-feira

    Tempo Temperatura Precipitação Vento Pressão Humidade
    00:00 +16°C° 0 mm 0 m/s 650 mmHg 94%
    01:00 +16°C° 0 mm 0 m/s 650 mmHg 94%
    02:00 +16°C° 0 mm 0 m/s 650 mmHg 94%
    03:00 +16°C° 0 mm 0 m/s 650 mmHg 94%
    04:00 +15°C° 0 mm 0 m/s 650 mmHg 95%
    05:00 +15°C° 0 mm 0 m/s 650 mmHg 95%
    06:00 +15°C° 0 mm 0 m/s 650 mmHg 96%
    07:00 +17°C° 0 mm 0 m/s 651 mmHg 90%
    08:00 +19°C° 0 mm 0 m/s 651 mmHg 83%
    09:00 +23°C° 0 mm 1 m/s 652 mmHg 77%
    10:00 +24°C° 0,2 mm 1 m/s 652 mmHg 74%
    11:00 +24°C° 0,2 mm 1 m/s 652 mmHg 71%
    12:00 +25°C° 0 mm 2 m/s 651 mmHg 68%
    13:00 +25°C° 0,1 mm 2 m/s 651 mmHg 69%
    14:00 +25°C° 0,1 mm 2 m/s 650 mmHg 69%
    15:00 +24°C° 0,1 mm 2 m/s 650 mmHg 69%
    16:00 +23°C° 0 mm 1 m/s 649 mmHg 77%
    17:00 +21°C° 0 mm 1 m/s 649 mmHg 85%
    18:00 +17°C° 0 mm 0 m/s 649 mmHg 93%
    19:00 +17°C° 0 mm 0 m/s 649 mmHg 93%
    20:00 +16°C° 0 mm 0 m/s 649 mmHg 94%
    21:00 +16°C° 0 mm 0 m/s 650 mmHg 95%
    22:00 +16°C° 0 mm 0 m/s 649 mmHg 95%
    23:00 +15°C° 0 mm 0 m/s 649 mmHg 96%

    Amanhã, 12 Dezembro, Terça-feira

    Tempo Temperatura Precipitação Vento Pressão Humidade
    00:00 +15°C° 0 mm 0 m/s 649 mmHg 96%
    01:00 +15°C° 0 mm 0 m/s 649 mmHg 96%
    02:00 +15°C° 0 mm 0 m/s 649 mmHg 95%
    03:00 +15°C° 0 mm 0 m/s 649 mmHg 95%
    04:00 +15°C° 0 mm 0 m/s 649 mmHg 95%
    05:00 +15°C° 0 mm 0 m/s 649 mmHg 96%
    06:00 +15°C° 0 mm 0 m/s 649 mmHg 96%
    07:00 +17°C° 0 mm 0 m/s 650 mmHg 89%
    08:00 +19°C° 0 mm 0 m/s 652 mmHg 81%
    09:00 +22°C° 0 mm 0 m/s 653 mmHg 74%
    10:00 +22°C° 0,1 mm 0 m/s 652 mmHg 72%
    11:00 +25°C° 0,1 mm 1 m/s 652 mmHg 70%
    12:00 +25°C° 0,1 mm 1 m/s 651 mmHg 67%
    13:00 +25°C° 0,2 mm 1 m/s 651 mmHg 69%
    14:00 +24°C° 0,2 mm 1 m/s 650 mmHg 70%
    15:00 +24°C° 0,2 mm 1 m/s 649 mmHg 71%
    16:00 +22°C° 0,1 mm 1 m/s 649 mmHg 78%
    17:00 +21°C° 0,1 mm 1 m/s 649 mmHg 86%
    18:00 +17°C° 0,1 mm 0 m/s 648 mmHg 93%
    19:00 +16°C° 0 mm 0 m/s 649 mmHg 94%
    20:00 +16°C° 0 mm 0 m/s 649 mmHg 95%
    21:00 +16°C° 0 mm 0 m/s 649 mmHg 96%
    22:00 +15°C° 0 mm 0 m/s 649 mmHg 96%
    23:00 +15°C° 0 mm 0 m/s 649 mmHg 96%

    Depois de amanhã, 13 Dezembro, Quarta-feira

    Tempo Temperatura Precipitação Vento Pressão Humidade
    00:00 +15°C° 0 mm 0 m/s 649 mmHg 96%
    01:00 +15°C° 0 mm 0 m/s 649 mmHg 96%
    02:00 +14°C° 0 mm 0 m/s 648 mmHg 96%
    03:00 +14°C° 0 mm 0 m/s 648 mmHg 96%
    04:00 +14°C° 0 mm 0 m/s 648 mmHg 96%
    05:00 +14°C° 0 mm 0 m/s 649 mmHg 96%
    06:00 +14°C° 0 mm 0 m/s 649 mmHg 96%
    07:00 +16°C° 0 mm 0 m/s 650 mmHg 88%
    08:00 +19°C° 0 mm 0 m/s 651 mmHg 80%
    09:00 +21°C° 0 mm 0 m/s 653 mmHg 72%
    10:00 +22°C° 0 mm 0 m/s 652 mmHg 66%
    11:00 +25°C° 0 mm 1 m/s 652 mmHg 60%
    12:00 +26°C° 0 mm 1 m/s 652 mmHg 55%
    13:00 +26°C° 0 mm 1 m/s 651 mmHg 56%
    14:00 +25°C° 0 mm 1 m/s 651 mmHg 58%
    15:00 +25°C° 0 mm 1 m/s 650 mmHg 59%
    16:00 +23°C° 0 mm 1 m/s 649 mmHg 67%
    17:00 +20°C° 0 mm 1 m/s 649 mmHg 76%
    18:00 +18°C° 0 mm 1 m/s 649 mmHg 84%
    19:00 +18°C° 0 mm 1 m/s 649 mmHg 86%
    20:00 +16°C° 0 mm 1 m/s 649 mmHg 88%
    21:00 +16°C° 0 mm 1 m/s 650 mmHg 90%
    22:00 +16°C° 0 mm 1 m/s 649 mmHg 91%
    23:00 +15°C° 0 mm 1 m/s 649 mmHg 92%

    14 Dezembro, Quinta-feira

    Tempo Temperatura Precipitação Vento Pressão Humidade
    00:00 +15°C° 0 mm 1 m/s 649 mmHg 92%
    01:00 +15°C° 0 mm 1 m/s 649 mmHg 93%
    02:00 +14°C° 0 mm 1 m/s 648 mmHg 93%
    03:00 +14°C° 0 mm 1 m/s 648 mmHg 93%
    04:00 +13°C° 0 mm 0 m/s 648 mmHg 93%
    05:00 +13°C° 0 mm 0 m/s 649 mmHg 93%
    06:00 +12°C° 0 mm 0 m/s 649 mmHg 93%
    07:00 +15°C° 0 mm 0 m/s 650 mmHg 83%
    08:00 +18°C° 0 mm 0 m/s 652 mmHg 73%
    09:00 +21°C° 0 mm 0 m/s 653 mmHg 63%
    10:00 +22°C° 0 mm 0 m/s 653 mmHg 57%
    11:00 +24°C° 0 mm 0 m/s 653 mmHg 52%
    12:00 +25°C° 0 mm 0 m/s 653 mmHg 46%
    13:00 +24°C° 0 mm 0 m/s 652 mmHg 47%
    14:00 +26°C° 0 mm 1 m/s 651 mmHg 48%
    15:00 +25°C° 0 mm 1 m/s 650 mmHg 50%
    16:00 +22°C° 0 mm 1 m/s 650 mmHg 57%
    17:00 +18°C° 0 mm 0 m/s 650 mmHg 65%
    18:00 +16°C° 0 mm 0 m/s 649 mmHg 72%
    19:00 +15°C° 0 mm 0 m/s 650 mmHg 74%
    20:00 +15°C° 0 mm 0 m/s 650 mmHg 75%
    21:00 +14°C° 0 mm 0 m/s 650 mmHg 76%
    22:00 +14°C° 0 mm 0 m/s 650 mmHg 76%
    23:00 +14°C° 0 mm 0 m/s 649 mmHg 76%

    15 Dezembro, Sexta-feira

    Tempo Temperatura Precipitação Vento Pressão Humidade
    00:00 +13°C° 0 mm 0 m/s 649 mmHg 76%
    01:00 +13°C° 0 mm 0 m/s 649 mmHg 77%
    02:00 +13°C° 0 mm 0 m/s 649 mmHg 77%
    03:00 +13°C° 0 mm 0 m/s 648 mmHg 78%
    04:00 +12°C° 0 mm 0 m/s 649 mmHg 79%
    05:00 +12°C° 0 mm 0 m/s 649 mmHg 80%
    06:00 +12°C° 0 mm 0 m/s 649 mmHg 81%
    07:00 +15°C° 0 mm 0 m/s 650 mmHg 75%
    08:00 +18°C° 0 mm 0 m/s 652 mmHg 68%
    09:00 +21°C° 0 mm 0 m/s 653 mmHg 61%
    10:00 +24°C° 0 mm 1 m/s 653 mmHg 57%
    11:00 +25°C° 0 mm 1 m/s 653 mmHg 53%
    12:00 +26°C° 0 mm 1 m/s 652 mmHg 49%
    13:00 +26°C° 0 mm 1 m/s 652 mmHg 50%
    14:00 +25°C° 0 mm 1 m/s 651 mmHg 52%
    15:00 +25°C° 0 mm 1 m/s 651 mmHg 53%
    16:00 +22°C° 0 mm 1 m/s 650 mmHg 61%
    17:00 +18°C° 0 mm 0 m/s 650 mmHg 70%
    18:00 +16°C° 0 mm 0 m/s 650 mmHg 79%
    19:00 +15°C° 0 mm 0 m/s 650 mmHg 80%
    20:00 +15°C° 0 mm 0 m/s 650 mmHg 82%
    21:00 +14°C° 0 mm 0 m/s 650 mmHg 84%
    22:00 +14°C° 0 mm 0 m/s 650 mmHg 85%
    23:00 +14°C° 0 mm 0 m/s 650 mmHg 86%

    16 Dezembro, Sábado

    Tempo Temperatura Precipitação Vento Pressão Humidade
    00:00 +13°C° 0 mm 0 m/s 650 mmHg 86%
    01:00 +13°C° 0 mm 0 m/s 650 mmHg 86%
    02:00 +13°C° 0 mm 0 m/s 650 mmHg 87%
    03:00 +13°C° 0 mm 0 m/s 649 mmHg 87%
    04:00 +13°C° 0 mm 0 m/s 650 mmHg 87%
    05:00 +12°C° 0 mm 0 m/s 650 mmHg 88%
    06:00 +12°C° 0 mm 0 m/s 650 mmHg 89%
    07:00 +15°C° 0 mm 0 m/s 651 mmHg 80%
    08:00 +20°C° 0 mm 1 m/s 653 mmHg 72%
    09:00 +23°C° 0 mm 1 m/s 654 mmHg 63%
    10:00 +24°C° 0 mm 1 m/s 654 mmHg 59%
    11:00 +25°C° 0 mm 1 m/s 653 mmHg 54%
    12:00 +26°C° 0 mm 1 m/s 653 mmHg 49%
    13:00 +26°C° 0 mm 1 m/s 652 mmHg 51%
    14:00 +25°C° 0 mm 1 m/s 652 mmHg 52%
    15:00 +25°C° 0 mm 1 m/s 651 mmHg 53%
    16:00 +23°C° 0 mm 1 m/s 651 mmHg 62%
    17:00 +20°C° 0 mm 1 m/s 651 mmHg 71%
    18:00 +16°C° 0 mm 0 m/s 650 mmHg 80%
    19:00 +16°C° 0 mm 0 m/s 651 mmHg 82%
    20:00 +15°C° 0 mm 0 m/s 651 mmHg 84%
    21:00 +15°C° 0 mm 0 m/s 651 mmHg 87%
    22:00 +14°C° 0 mm 0 m/s 651 mmHg 87%
    23:00 +14°C° 0 mm 0 m/s 651 mmHg 88%
    Mostrar mais